Location: Milo
(50.5667°N, 112.8833°W)
Time: 07:02:18
(UTC+00:00)

N. Korean satellite - Pass Details

Date: 08 December 2021
Orbit: 446 x 491 km, 97.3° (Epoch: 18 January)

Event Time Altitude Azimuth Distance (km) Brightness Sun altitude
Rises 00:54:39 0° 207° (SSW) 2,516 11.0 -13.0°
Reaches altitude 10° 00:57:22 10° 230° (SW) 1,633 10.4 -13.4°
Maximum altitude 00:59:32 16° 269° (W) 1,324 9.9 -13.7°
Drops below altitude 10° 01:01:42 10° 308° (NW) 1,625 9.7 -14.1°
Sets 01:04:24 0° 331° (NNW) 2,496 10.3 -14.5°
